User: anonymous   Login
Location: Unspecified
(0.0000°N, 0.0000°E)
Time: 13:32:57
(UTC+01:00)
Language:

H-2A R/B - Orbit

View from above orbital plane
View from above orbital plane
View from above satellite
View from above satellite

Ground track
Ground track

The orbit data is extracted from the following two-line orbital elements,

1 28932U 06002B   16339.37865333  .00000542  00000-0  57134-4 0  9997
2 28932  98.2067 248.4481 0089261 229.2905 245.9619 14.91166665588770
Epoch (UTC): 04 December 2016 09:05:15
Eccentricity: 0.0089261
inclination: 98.2067°
perigee height: 532 km
apogee height: 656 km
right ascension of ascending node: 248.4481°
argument of perigee: 229.2905°
revolutions per day: 14.91166665
mean anomaly at epoch: 245.9619°
orbit number at epoch: 58877

The dashed part of the orbit path shows where the satellite is in the earth's shadow,  

DLR